Location: Caltech
(34.1382°N, 118.1253°W)
Time: 01:39:29
(UTC-07:00)

Cosmos 1484 Rocket - Visible Passes

Search period start: 28 July 2015 00:00
Search period end: 07 August 2015 00:00
Orbit: 511 x 567 km, 97.4° (Epoch: 27 July)

Date Brightness Start Highest point End Pass type
(mag) Time Alt. Az. Time Alt. Az. Time Alt. Az.
28 Jul 4.8 20:25:59 10° SSW 20:29:18 29° W 20:32:38 10° NW visible
29 Jul 4.4 20:18:03 10° SSW 20:21:34 37° W 20:25:07 10° NNW visible
05 Aug 6.0 21:01:11 10° WSW 21:02:26 11° W 21:03:27 10° WNW visible
06 Aug 5.7 20:52:28 10° SW 20:54:38 14° W 20:56:38 10° WNW visible
